This is the latest recevied weather packets stored in our database for station/object KC5AV. If no packets are shown the sender has not sent any weather packets the latest 10 day(s).
| Time | Temp. | Humidity | Pressure | Rain* | Wind** | Luminosity | Snow |
|---|---|---|---|---|---|---|---|
| 1777943978 | 22.22° C | 62% | 1009.3 hPa | 0 mm | - | 0 W/m² | - |
| 1777943674 | 22.22° C | 62% | 1009.5 hPa | 0 mm | - | 0 W/m² | - |
| 1777943370 | 22.78° C | 61% | 1009.3 hPa | 0 mm | - | 1 W/m² | - |
| 1777943066 | 22.78° C | 60% | 1009.1 hPa | 0 mm | - | 1 W/m² | - |
| 1777942762 | 22.78° C | 60% | 1009.1 hPa | 0 mm | - | 2 W/m² | - |
| 1777942459 | 23.33° C | 59% | 1009.1 hPa | 0 mm | - | 4 W/m² | - |
| 1777942157 | 23.33° C | 57% | 1009 hPa | 0 mm | - | 7 W/m² | - |
| 1777941853 | 23.89° C | 56% | 1009.4 hPa | 0 mm | - | 10 W/m² | - |
| 1777941550 | 23.89° C | 56% | 1009.2 hPa | 0 mm | - | 14 W/m² | - |
| 1777941247 | 23.89° C | 55% | 1009.4 hPa | 0 mm | - | 16 W/m² | - |
| 1777940943 | 24.44° C | 53% | 1009.2 hPa | 0 mm | - | 23 W/m² | - |
| 1777940640 | 24.44° C | 53% | 1009.5 hPa | 0 mm | - | 27 W/m² | - |
| 1777940338 | 24.44° C | 51% | 1009.5 hPa | 0 mm | - | 32 W/m² | - |
| 1777940035 | 25° C | 50% | 1009.9 hPa | 0 mm | - | 40 W/m² | - |
| 1777939733 | 25° C | 50% | 1009.7 hPa | 0 mm | - | 38 W/m² | - |
| 1777939430 | 25° C | 49% | 1009.7 hPa | 0 mm | - | 39 W/m² | - |
| 1777939127 | 25.56° C | 46% | 1009.8 hPa | 0 mm | - | 36 W/m² | - |
| 1777938824 | 26.67° C | 45% | 1010 hPa | 0 mm | - | 65 W/m² | - |
| 1777938520 | 26.67° C | 45% | 1010 hPa | 0 mm | - | 88 W/m² | - |
| 1777938218 | 26.67° C | 44% | 1010 hPa | 0 mm | - | 102 W/m² | - |
| 1777937914 | 26.11° C | 45% | 1010 hPa | 0 mm | - | 102 W/m² | - |
| 1777937610 | 26.67° C | 45% | 1010 hPa | 0 mm | - | 112 W/m² | - |
| 1777937307 | 26.67° C | 45% | 1010 hPa | 0 mm | - | 134 W/m² | - |
| 1777937004 | 26.67° C | 43% | 1010.3 hPa | 0 mm | - | 123 W/m² | - |
| 1777936701 | 27.22° C | 43% | 1010.4 hPa | 0 mm | - | 157 W/m² | - |
* Rain latest hour (hover to see other rain measurements)
** Current wind speed in m/s (hover to see current wind gust speed)